CAPE
187 265 389 538 630 560 494 306 13 0 0 0 0 0 0 0 0 0 0 0 0 0 0 0 0 0 0 0 0 0 0 0
262 356 428 526 526 462 440 116 251 46 58 5 0 0 0 0 0 0 0 0 0 0 0 0 0 0 0 0 0 0 0 0
309 500 527 402 360 408 378 487 477 167 14 0 0 0 0 0 0 0 0 0 0 0 0 0 0 0 0 0 0 0 0 0
472 556 608 557 517 628 595 459 228 0 0 0 0 0 0 0 0 0 0 0 0 0 0 0 0 0 0 0 0 0 0 0
536 561 563 670 589 487 24 0 0 0 0 0 0 0 0 0 0 0 0 0 0 0 0 0 0 0 0 0 0 0 0 0
51 29 32 33 37 1 0 0 0 0 0 0 0 0 0 0 0 0 0 0 0 0 0 0 0 2 2 0 0 0 0 0
0 0 0 0 0 0 0 0 0 0 0 0 0 0 0 0 0 0 0 0 0 2 11 11 7 2 0 0 0 0 6 0
0 0 0 0 0 0 0 0 0 0 0 0 0 0 0 0 0 0 0 0 0 0 0 0 2 13 0 25 14 29 23 14
0 0 0 0 0 0 0 0 0 0 0 0 0 0 0 0 0 0 0 0 0 0 0 0 6 26 22 40 39 37 18 11
0 0 0 0 0 0 0 0 0 0 0 0 0 0 0 0 0 0 0 0 0 0 0 0 10 39 44 47 41 25 10 9
0 0 0 0 0 0 0 0 0 0 0 0 0 0 0 0 0 0 0 0 0 0 0 0 0 20 44 39 31 13 6 16
0 0 0 0 0 0 0 0 0 0 0 0 0 0 0 0 0 0 0 0 0 0 0 0 2 17 26 28 14 20 12 8
0 0 0 0 0 0 0 0 0 0 0 0 0 0 0 0 0 0 0 0 0 0 0 4 8 20 23 17 18 0 1 5
0 0 0 0 0 0 0 0 0 0 0 0 0 0 0 0 0 0 0 0 0 0 3 12 11 23 9 0 2 1 4 2
0 0 0 0 0 0 0 0 0 0 0 0 0 0 0 0 0 0 0 0 0 0 11 8 7 8 11 2 0 3 6 4
0 0 0 0 0 0 0 0 0 0 0 0 0 0 0 0 0 0 0 0 0 7 10 17 17 8 0 0 2 2 0 0
0 0 0 0 0 0 0 0 0 0 0 0 0 0 0 0 0 0 0 0 2 3 9 18 9 0 0 0 0 0 0 0
0 0 0 0 0 0 0 0 0 0 0 0 0 0 0 0 0 0 0 0 2 1 17 14 9 1 0 0 0 0 0 0
0 0 0 0 0 0 0 0 0 0 0 0 0 0 0 0 0 0 0 1 0 5 17 8 4 0 0 0 0 0 0 0
CIN
-267 -189 -130 -91 -62 -70 -71 -93 -179 0 0 0 0 0 0 0 0 0 0 0 0 0 0 0 0 0 0 0 0 0 0 0
-255 -209 -164 -101 -80 -59 -51 -89 -21 -67 -99 -126 0 0 0 0 0 0 0 0 0 0 0 0 0 0 0 0 0 0 0 0
-243 -143 -118 -133 -110 -64 -49 -19 -1 -4 -41 0 0 0 0 0 0 0 0 0 0 0 0 0 0 0 0 0 0 0 0 0
-160 -111 -77 -78 -70 -42 -23 -8 -10 0 0 0 0 0 0 0 0 0 0 0 0 0 0 0 0 0 0 0 0 0 0 0
-100 -71 -59 -32 -24 -18 -125 0 0 0 0 0 0 0 -1 0 0 0 0 0 0 0 0 0 0 0 0 0 0 0 0 0
-202 -194 -189 -135 -110 -35 0 0 0 0 0 0 0 0 0 0 0 0 0 0 0 0 0 0 0 0 -1 0 0 0 0 0
0 0 0 0 0 0 0 0 0 0 0 0 0 0 0 0 0 0 0 0 0 -1 -1 -1 -1 0 0 0 -1 0 -2 0
0 0 0 0 0 0 0 0 0 0 0 0 0 0 0 0 0 0 0 0 0 0 0 0 0 0 0 -2 -2 -1 -2 -2
0 0 0 0 0 0 0 0 0 0 0 0 0 0 0 0 0 0 0 0 0 0 0 0 0 -1 -1 -1 -1 -1 -2 -1
0 0 0 0 0 0 0 0 0 0 0 0 0 0 0 0 0 0 0 0 0 0 0 0 -1 -1 -1 -1 -2 -1 -2 -3
0 0 0 0 0 0 0 0 0 0 0 0 0 0 0 0 0 0 0 0 0 0 0 0 -1 -2 -1 -2 -2 -2 -2 -3
0 0 0 0 0 0 0 0 0 0 0 0 0 0 0 0 0 0 0 0 0 0 0 0 -1 -2 -1 -1 -2 -2 -1 -2
0 0 0 0 0 0 0 0 0 0 0 0 0 0 0 0 0 0 0 0 0 0 -1 -2 -2 -1 -2 -1 -1 -2 -1 -4
0 0 0 0 0 0 0 0 0 0 0 0 0 0 0 0 0 0 0 0 0 0 -1 -1 -1 -1 0 0 -2 -2 -1 -1
0 0 0 0 0 0 0 0 0 0 0 0 0 0 0 0 0 0 0 0 0 -1 -2 -1 -1 -1 -1 0 0 -1 -1 -2
0 0 0 0 0 0 0 0 0 0 0 0 0 0 0 0 0 0 0 0 -1 -2 -2 -1 -1 -1 0 0 -1 -1 -1 0
0 0 0 0 0 0 0 0 0 0 0 0 0 0 0 0 0 0 0 0 -1 -2 -1 -1 0 0 0 0 0 0 0 0
0 0 0 0 0 0 0 0 0 0 0 0 0 0 0 0 0 0 0 0 -1 -1 -1 -1 -1 0 0 0 0 0 0 0
0 0 0 0 0 0 0 0 0 0 0 0 0 0 0 0 0 0 0 -1 -2 -2 -2 0 -1 0 0 0 0 0 0 0
Wind_Speed
8 8 7 7 7 7 6 6 5 5 12 10 13 13 13 13 14 13 15 16 18 20 22 25 27 29 31 33 35 36 37 38
8 7 7 7 6 5 6 6 6 10 11 11 11 12 13 14 15 16 16 17 20 22 24 26 29 31 31 32 33 36 37 37
7 7 7 7 6 5 6 6 7 8 10 11 12 12 14 15 16 16 17 19 20 22 25 28 30 31 32 33 34 37 38 37
6 6 6 7 7 8 8 8 8 10 11 12 13 14 15 16 17 19 20 20 22 25 28 31 33 33 34 33 34 36 38 37
7 8 9 9 9 9 10 10 10 11 11 13 13 16 16 19 19 20 21 23 26 29 31 33 33 34 33 33 32 34 35 40
7 8 9 10 11 11 12 12 12 12 13 13 13 15 17 19 21 24 26 27 29 31 33 34 33 32 30 30 31 34 34 36
7 9 11 12 12 12 12 12 12 13 13 15 16 17 19 21 24 26 28 31 32 33 33 34 32 30 28 29 32 31 33 34
9 10 10 10 10 10 11 11 12 12 14 16 17 20 22 25 27 28 31 33 35 36 36 35 32 28 27 30 31 32 31 30
9 9 8 8 8 8 9 9 11 12 14 16 19 21 24 26 27 30 32 33 34 36 36 35 32 28 28 31 30 31 28 27
8 6 5 5 6 6 7 8 10 13 16 16 19 21 24 27 29 29 31 32 35 37 37 36 33 28 30 30 31 31 28 26
5 3 2 3 4 5 7 10 12 14 16 18 19 22 24 27 28 30 31 33 37 39 38 37 34 32 32 29 30 28 27 24
3 1 1 2 3 5 8 11 14 15 16 18 20 22 25 28 29 29 31 34 37 38 38 37 35 32 31 29 29 28 25 22
3 3 3 3 4 6 10 12 14 16 14 19 20 24 26 28 29 29 31 34 37 38 37 36 34 32 31 31 27 24 22 23
5 5 6 6 6 8 10 12 16 14 17 19 22 25 27 30 29 29 31 34 37 36 35 35 34 32 30 25 23 22 23 24
9 8 8 8 8 9 11 15 15 16 16 20 24 27 29 29 29 30 31 34 36 35 33 34 32 29 27 24 21 21 22 25
11 11 10 10 10 10 13 14 17 16 18 22 25 27 29 28 29 30 32 34 34 32 32 31 29 26 24 22 21 23 25 28
12 12 11 10 10 10 15 16 15 16 20 23 27 28 28 29 29 31 33 32 31 31 32 29 26 23 22 21 23 25 27 28
12 12 12 11 10 12 16 13 15 18 21 24 26 28 29 29 30 31 32 33 31 31 28 25 23 20 21 21 23 26 26 26
13 12 11 10 11 13 12 13 16 18 22 25 27 28 29 30 31 32 33 33 32 29 24 22 20 19 20 22 24 25 25 26
Wind_Direction
3 9 36 60 69 71 62 43 29 43 355 9 14 26 39 39 30 28 18 8 0 355 350 344 341 337 334 332 329 328 327 326
7 19 18 14 22 40 49 31 24 358 359 19 31 32 28 33 26 15 14 7 358 353 348 344 342 338 335 334 333 330 329 328
5 3 10 16 34 34 31 22 11 24 34 38 36 33 27 21 16 13 9 3 360 354 348 343 341 338 335 333 331 328 327 328
6 26 40 52 60 60 43 35 49 43 43 36 30 26 18 10 4 359 359 359 352 347 343 340 337 335 332 331 331 330 329 330
49 55 57 56 50 51 48 53 49 43 39 25 18 8 4 1 359 356 352 348 343 341 338 337 335 334 333 333 334 333 332 328
61 57 54 58 65 65 60 59 52 47 37 34 26 18 11 3 354 348 344 343 341 338 337 336 335 335 336 336 336 334 333 331
72 67 75 73 74 73 69 61 52 44 36 26 18 10 3 358 352 346 343 341 340 338 338 337 336 335 335 336 335 333 332 331
105 101 91 83 80 70 63 57 46 36 25 17 9 360 357 352 350 346 342 340 338 338 338 337 336 335 336 335 334 332 331 331
120 111 92 81 76 69 60 50 38 26 16 7 359 354 349 349 349 346 343 342 342 341 341 340 338 335 334 334 334 334 332 331
131 111 88 73 69 58 42 31 22 11 1 358 353 352 349 346 346 347 346 344 343 342 341 340 338 335 333 333 333 333 330 329
144 121 69 58 49 33 21 7 358 355 355 354 354 351 349 347 346 345 345 344 342 342 342 341 338 335 332 331 332 332 331 329
187 225 4 8 4 1 352 349 346 349 348 350 349 349 346 345 344 344 344 343 343 343 342 342 340 337 336 333 331 331 331 330
234 263 288 306 318 332 337 340 343 342 343 342 344 344 343 341 342 343 343 343 344 343 343 344 344 342 339 334 334 337 336 333
266 269 274 288 298 317 327 331 333 336 337 338 340 340 340 339 340 340 341 341 342 344 344 344 344 343 341 343 340 340 338 337
276 276 277 289 295 306 317 324 329 332 334 336 337 337 338 338 339 339 340 341 342 343 344 345 346 346 345 346 346 343 342 338
276 278 284 290 295 302 315 321 326 329 333 334 335 336 337 338 338 338 339 340 341 343 343 345 347 349 351 352 349 345 341 337
282 281 286 290 295 300 318 319 327 331 332 333 335 336 338 337 338 338 339 340 342 343 343 345 347 352 355 354 349 344 340 340
287 283 287 292 296 311 318 321 329 330 332 334 336 337 337 337 337 338 339 340 343 343 345 348 349 353 356 353 349 345 343 343
293 293 294 298 308 318 324 328 330 331 333 334 336 337 336 336 336 336 338 339 342 344 346 349 351 354 354 352 349 347 346 345